Vienna, OH

2:39 AM EST on February 20, 2017 (GMT -0500)
Youngstown-Warren Regional

Weather History for KYNG - November, 2010

Change the Weather History Date:

Thursday, November 25, 2010

  Actual Average Record
Temperature  
Mean Temperature 44 °F 38 °F  
Max Temperature 52 °F 45 °F 72 °F (1931)
Min Temperature 36 °F 31 °F 6 °F (1950)
Degree Days  
Heating Degree Days 21 27  
Month to date heating degree days 572 566  
Since 1 July heating degree days 1123 1187  
Cooling Degree Days 0 0  
Month to date cooling degree days 0 0  
Year to date cooling degree days 793 544  
Moisture  
Dew Point 40 °F    
Average Humidity 93    
Maximum Humidity 100    
Minimum Humidity 85    
Precipitation  
Precipitation 1.38 in 0.10 in 1.38 in (2010)
Month to date precipitation 2.82 2.64  
Year to date precipitation 33.36 35.38  
Snow  
Snow 0.00 in 0.20 in - ()
Month to date snowfall T 2.5  
Since 1 July snowfall T 3.3  
Since 1 September snowfall T 3.3  
Snow Depth 0.00 in    
Sea Level Pressure  
Sea Level Pressure 29.80 in    
Wind  
Wind Speed 11 mph (SE)    
Max Wind Speed 21 mph    
Max Gust Speed 25 mph    
Visibility 3 miles    
Events Fog , Rain    
T = Trace of Precipitation, MM = Missing Value Source: NWS Daily Summary

Daily Weather History Graph

Daily Weather History Graph

Search for Another Location

Airport or City:

Trip Planner

Search our weather history database for the weather conditions in past years. The results will help you decide how hot, cold, wet, or windy it might be!

Date:

Astronomy

Nov. 25, 2010 Rise Set
Actual Time 7:22 AM EST 4:56 PM EST
Civil Twilight 6:52 AM EST 5:27 PM EST
Nautical Twilight 6:18 AM EST 6:01 PM EST
Astronomical Twilight 5:45 AM EST 6:34 PM EST
Moon 8:52 PM EST (11/25) 10:51 AM EST (11/25)
Length of Visible Light 10h 34m
Length of Day
9h 34m
Waning Gibbous, 83% of the Moon is Illuminated
Nov 25
Waning Gibbous
Nov 28
Last Quarter
Dec 5
New
Dec 13
First Quarter
Dec 21
Full

Hourly Weather History & Observations

Time (EST) Temp. Windchill Dew Point Humidity Pressure Visibility Wind Dir Wind Speed Gust Speed Precip Events Conditions
12:51 AM 39.0 °F 29.9 °F 26.1 °F 60% 30.07 in 10.0 mi ESE 17.3 mph 23.0 mph 0.00 in   Overcast
1:51 AM 39.0 °F 31.8 °F 27.0 °F 62% 30.03 in 10.0 mi ESE 11.5 mph - 0.00 in Rain Light Rain
2:51 AM 39.0 °F 30.3 °F 28.9 °F 67% 30.01 in 10.0 mi ESE 16.1 mph 23.0 mph 0.00 in Rain Light Rain
3:51 AM 37.0 °F 27.7 °F 33.1 °F 86% 29.98 in 6.0 mi ESE 16.1 mph - 0.02 in Rain Light Rain
4:51 AM 36.0 °F 26.3 °F 34.0 °F 93% 29.96 in 4.0 mi ESE 16.1 mph 21.9 mph 0.16 in Rain Rain
5:04 AM 35.6 °F 26.6 °F 35.6 °F 100% 29.93 in 4.0 mi ESE 13.8 mph 21.9 mph 0.03 in Rain Rain
5:35 AM 35.6 °F 25.9 °F 35.6 °F 100% 29.92 in 3.0 mi ESE 16.1 mph - 0.16 in Rain Heavy Rain
5:51 AM 36.0 °F 26.3 °F 35.1 °F 97% 29.94 in 5.0 mi ESE 16.1 mph - 0.22 in Rain Light Rain
6:51 AM 37.0 °F 27.4 °F 35.1 °F 93% 29.91 in 5.0 mi SE 17.3 mph 21.9 mph 0.06 in Rain Rain
7:51 AM 37.0 °F 27.4 °F 36.0 °F 96% 29.90 in 4.0 mi ESE 17.3 mph - 0.14 in Rain Rain
8:18 AM 37.4 °F 28.2 °F 35.6 °F 93% 29.87 in 2.0 mi ESE 16.1 mph - 0.08 in Rain Rain
8:51 AM 37.9 °F 28.9 °F 37.0 °F 97% 29.89 in 2.5 mi ESE 16.1 mph - 0.20 in Rain Rain
9:38 AM 37.4 °F 29.8 °F 37.4 °F 100% 29.86 in 3.0 mi ESE 11.5 mph - 0.07 in Rain Light Rain
9:51 AM 37.9 °F 30.9 °F 37.9 °F 100% 29.88 in 6.0 mi ESE 10.4 mph - 0.08 in Rain Light Rain
10:02 AM 37.4 °F 29.8 °F 37.4 °F 100% 29.86 in 1.0 mi ESE 11.5 mph - 0.00 in Rain Light Rain
10:24 AM 39.2 °F 32.5 °F 39.2 °F 100% 29.86 in 2.0 mi SE 10.4 mph - 0.02 in Rain Light Rain
10:51 AM 39.9 °F 31.8 °F 39.0 °F 97% 29.86 in 6.0 mi SE 15.0 mph - 0.04 in Rain Light Rain
11:51 AM 41.0 °F 36.4 °F 41.0 °F 100% 29.86 in 4.0 mi SE 6.9 mph - 0.02 in Rain Light Rain
12:51 PM 42.1 °F - 42.1 °F 100% 29.85 in 10.0 mi Calm Calm - 0.02 in Rain Light Rain
1:51 PM 43.0 °F 36.0 °F 42.1 °F 97% 29.78 in 1.5 mi SE 13.8 mph - 0.01 in Rain Light Rain
2:09 PM 42.8 °F 34.8 °F 42.8 °F 100% 29.71 in 0.5 mi SE 17.3 mph - 0.00 in Fog , Rain Light Rain
2:51 PM 44.6 °F 38.4 °F 44.6 °F 100% 29.71 in 0.8 mi SSE 12.7 mph 23.0 mph N/A   Overcast
3:40 PM 44.6 °F 38.8 °F 44.6 °F 100% 29.70 in 0.8 mi SSE 11.5 mph 24.2 mph N/A   Overcast
3:51 PM 46.0 °F - 45.0 °F 96% 29.73 in 0.8 mi Calm Calm - N/A   Overcast
4:51 PM 46.0 °F 41.9 °F 46.0 °F 100% 29.73 in 0.8 mi SSE 8.1 mph - N/A   Overcast
5:51 PM 46.9 °F - 46.0 °F 97% 29.71 in 0.8 mi SE 5.8 mph - N/A   Overcast
6:51 PM 46.0 °F 43.9 °F 46.0 °F 100% 29.70 in 0.5 mi SE 4.6 mph - 0.01 in Fog , Rain Light Rain
7:51 PM 46.0 °F 41.9 °F 46.0 °F 100% 29.65 in 0.8 mi ESE 8.1 mph - 0.05 in Rain Light Rain
8:03 PM 46.4 °F 42.4 °F 46.4 °F 100% 29.62 in 0.8 mi ESE 8.1 mph - 0.00 in Rain Light Rain
8:30 PM 46.4 °F 41.9 °F 46.4 °F 100% 29.60 in 1.0 mi ESE 9.2 mph - 0.05 in Rain Rain
8:51 PM 48.0 °F - 48.0 °F 100% 29.62 in 1.5 mi SE 5.8 mph - 0.06 in Rain Light Rain
9:51 PM 50.0 °F - 48.9 °F 96% 29.60 in 1.0 mi South 5.8 mph - 0.10 in Rain Rain
10:28 PM 50.0 °F - 50.0 °F 100% 29.56 in 0.8 mi South 4.6 mph - 0.06 in Rain Rain
10:51 PM 50.0 °F - 50.0 °F 100% 29.58 in 0.8 mi SSW 5.8 mph - 0.09 in Rain Light Rain
11:51 PM 51.1 °F - 51.1 °F 100% 29.55 in 0.8 mi SW 8.1 mph - 0.08 in Rain Light Rain